TimeCST,TemperatureF,Dew PointF,Humidity,Sea Level PressureIn,VisibilityMPH,Wind Direction,Wind SpeedMPH,Gust SpeedMPH,PrecipitationIn,Events,Conditions,WindDirDegrees,DateUTC
12:54 AM,19.0,16.0,88,30.15,7.0,Calm,Calm,-,N/A,,Clear,0,2013-02-25 06:54:00
1:54 AM,17.1,12.9,84,30.15,7.0,ENE,4.6,-,N/A,,Mostly Cloudy,70,2013-02-25 07:54:00
2:54 AM,19.0,16.0,88,30.15,7.0,Calm,Calm,-,N/A,,Overcast,0,2013-02-25 08:54:00
3:54 AM,18.0,16.0,92,30.13,6.0,ENE,3.5,-,N/A,,Overcast,60,2013-02-25 09:54:00
4:54 AM,19.9,18.0,92,30.14,8.0,Calm,Calm,-,N/A,,Overcast,0,2013-02-25 10:54:00
5:54 AM,21.0,18.0,88,30.14,6.0,NE,3.5,-,N/A,,Overcast,50,2013-02-25 11:54:00
6:54 AM,21.0,19.0,92,30.15,6.0,Calm,Calm,-,0.00,,Overcast,0,2013-02-25 12:54:00
7:54 AM,21.0,19.0,92,30.16,1.8,ESE,3.5,-,0.00,Snow,Light Snow,120,2013-02-25 13:54:00
8:33 AM,21.2,19.4,93,30.09,2.0,SE,4.6,-,0.00,Snow,Light Snow,130,2013-02-25 14:33:00
8:54 AM,23.0,21.0,92,30.16,2.5,Calm,Calm,-,0.00,Snow,Light Snow,0,2013-02-25 14:54:00
9:05 AM,24.8,21.2,86,30.09,3.0,ESE,3.5,-,0.00,Snow,Light Snow,120,2013-02-25 15:05:00
9:27 AM,24.8,21.2,86,30.10,2.0,South,5.8,-,0.00,Snow,Light Snow,170,2013-02-25 15:27:00
9:45 AM,24.8,21.2,86,30.10,5.0,South,4.6,-,0.00,Snow,Light Snow,180,2013-02-25 15:45:00
9:54 AM,25.0,21.9,88,30.16,6.0,South,4.6,-,0.00,,Overcast,170,2013-02-25 15:54:00
10:54 AM,27.0,23.0,85,30.15,4.0,SSE,5.8,-,0.00,Snow,Light Snow,160,2013-02-25 16:54:00
11:54 AM,28.0,24.1,85,30.14,8.0,ESE,5.8,-,0.00,,Overcast,120,2013-02-25 17:54:00
12:38 PM,30.2,24.8,80,30.07,9.0,South,3.5,-,N/A,,Overcast,170,2013-02-25 18:38:00
12:54 PM,30.0,24.1,79,30.13,9.0,South,3.5,-,N/A,,Overcast,170,2013-02-25 18:54:00
1:44 PM,30.2,24.8,80,30.06,9.0,South,4.6,-,N/A,,Overcast,170,2013-02-25 19:44:00
1:54 PM,30.9,24.1,76,30.12,9.0,Calm,Calm,-,N/A,,Overcast,0,2013-02-25 19:54:00
2:54 PM,30.9,23.0,72,30.12,8.0,Calm,Calm,-,N/A,,Overcast,0,2013-02-25 20:54:00
3:54 PM,32.0,24.1,73,30.11,9.0,ESE,3.5,-,N/A,,Overcast,110,2013-02-25 21:54:00
4:54 PM,32.0,23.0,69,30.11,9.0,East,3.5,-,N/A,,Overcast,80,2013-02-25 22:54:00
5:54 PM,30.9,23.0,72,30.10,7.0,Calm,Calm,-,N/A,,Overcast,0,2013-02-25 23:54:00
6:54 PM,28.0,21.0,75,30.11,8.0,East,4.6,-,N/A,,Mostly Cloudy,90,2013-02-26 00:54:00
7:03 PM,28.4,21.2,74,30.05,8.0,East,4.6,-,N/A,,Overcast,100,2013-02-26 01:03:00
7:54 PM,28.9,21.9,75,30.12,8.0,NE,3.5,-,N/A,,Overcast,40,2013-02-26 01:54:00
8:54 PM,28.9,23.0,78,30.10,8.0,ENE,4.6,-,N/A,,Overcast,60,2013-02-26 02:54:00
9:54 PM,28.9,21.9,75,30.08,8.0,ENE,4.6,-,N/A,,Overcast,60,2013-02-26 03:54:00
10:54 PM,28.0,21.0,75,30.10,8.0,East,3.5,-,N/A,,Overcast,100,2013-02-26 04:54:00
11:54 PM,26.1,19.9,78,30.10,8.0,ENE,4.6,-,N/A,,Overcast,70,2013-02-26 05:54:00